This demonstration page uses our WeatherBlox Daily Observations layout. Learn more.

41.55636, -103.73856

Hourly Observations for August 16, 2016

Temp ( °F °C ) Dew Point ( °F °C ) Humidity (%) Winds ( mph kmh ) Pressure ( in mb ) Visibility ( mi km ) Precip ( " mm )
12:53 am 00:53 Clear 59 15 51 10.6 75 75 WSW 6 9 30.02 1017 10 16.0934 0 0
1:53 am 01:53 Clear 57 13.9 51 10.6 81 81 N 6 9 30.01 1016 10 16.0934 0 0
2:53 am 02:53 Clear 57 13.9 51 10.6 81 81 WNW 8 13 30.03 1017 10 16.0934 0 0
3:53 am 03:53 Clear 54 12.2 51 10.6 90 90 NW 8 13 30.03 1017 10 16.0934 0 0
4:53 am 04:53 Clear 54 12.2 51 10.6 90 90 WNW 7 11 30.04 1017 10 16.0934 0 0
5:53 am 05:53 Clear 54 12.2 51 10.6 90 90 WNW 9 15 30.04 1017 10 16.0934 0 0
6:53 am 06:53 Sunny 56 13.3 52 11.1 87 87 Calm 30.07 1018 10 16.0934 0 0
7:53 am 07:53 Sunny 61 16.1 53 11.7 75 75 NNW 8 13 30.08 1019 10 16.0934 0 0
8:53 am 08:53 Sunny 67 19.4 52 11.1 59 59 NE 3 6 30.1 1019 10 16.0934 0 0
9:53 am 09:53 Sunny 73 22.8 55 12.8 53 53 Calm 30.09 1019 10 16.0934 0 0
10:53 am 10:53 Sunny 76 24.4 54 12.2 47 47 Calm 30.08 1019 10 16.0934 0 0
11:53 am 11:53 Sunny 80 26.7 54 12.2 41 41 VRB 5 7 30.06 1018 10 16.0934 0 0
12:53 pm 12:53 Sunny 83 28.3 47 8.3 28 28 ESE 6 9 30.04 1017 10 16.0934 0 0
1:53 pm 13:53 Sunny 85 29.4 49 9.4 29 29 E 7 11 30.03 1017 10 16.0934 0 0
2:53 pm 14:53 Sunny 87 30.6 51 10.6 29 29 E 9 15 30.01 1016 10 16.0934 0 0
3:53 pm 15:53 Sunny 87 30.6 51 10.6 29 29 E 8 13 30 1016 10 16.0934 0 0
4:53 pm 16:53 Sunny 87 30.6 52 11.1 30 30 ESE 10 17 29.99 1016 10 16.0934 0 0
5:53 pm 17:53 Sunny 86 30 56 13.3 36 36 E 8 13 29.99 1016 10 16.0934 0 0
6:53 pm 18:53 Sunny 81 27.2 58 14.4 45 45 E 8 13 29.99 1016 10 16.0934 0 0
7:53 pm 19:53 Clear 72 22.2 59 15 64 64 ENE 7 11 30.01 1016 10 16.0934 0 0
8:53 pm 20:53 Clear 69 20.6 57 13.9 66 66 ENE 9 15 30.02 1017 10 16.0934 0 0
9:53 pm 21:53 Clear 69 20.6 55 12.8 61 61 ESE 9 15 30.02 1017 10 16.0934 0 0
10:53 pm 22:53 Clear 65 18.3 55 12.8 70 70 SE 7 11 30.02 1017 10 16.0934 0 0
11:53 pm 23:53 Clear 63 17.2 54 12.2 73 73 ESE 6 9 30.02 1017 10 16.0934 0 0

Powered by AerisWeather